CAPE
0 0 0 0 0 0 0 0 0 0 0 0 0 0 0 0 0 0 0 0 0 0 0 0 0 0 0 0 0 0 0 0 0 0 0 0 0 0 0 0 0 0 0 0 0 0 0
9 0 0 0 0 0 0 0 0 0 0 0 0 0 0 0 0 0 0 0 0 0 0 0 0 0 0 0 0 0 0 0 0 0 0 0 0 0 0 0 0 0 0 0 0 0 0
6 0 0 1 0 2 1 0 0 0 0 0 0 0 0 0 0 0 0 0 0 0 0 0 0 0 0 0 0 0 0 0 0 0 0 0 0 0 0 0 0 0 0 0 0 0 0
0 6 4 1 1 0 0 0 2 0 0 0 0 0 0 0 0 0 0 0 0 0 0 0 0 0 0 0 0 0 0 0 0 0 0 0 0 0 0 0 0 0 0 0 0 0 0
0 0 0 3 2 0 0 0 0 0 0 0 0 0 0 0 0 0 0 0 0 0 0 0 0 0 0 0 0 0 0 0 0 0 0 0 0 0 0 0 0 0 0 0 0 0 0
1 0 0 0 0 0 0 0 0 0 0 0 0 0 0 0 0 0 0 0 0 0 0 0 0 0 0 0 0 0 0 0 0 0 0 0 0 0 0 0 0 0 0 0 0 0 0
2 5 2 4 4 3 3 0 0 0 0 0 0 0 0 0 0 0 0 0 0 0 0 0 0 0 0 0 0 0 0 0 0 0 0 0 0 0 0 0 0 0 0 0 0 0 0
65 43 14 11 23 0 3 6 0 0 0 0 0 0 0 0 0 0 0 0 0 0 0 0 0 0 0 0 0 0 0 0 0 0 0 0 0 0 0 0 0 0 0 0 0 0 0
68 59 63 61 66 56 23 28 19 1 0 0 0 0 0 0 0 0 0 0 0 0 0 0 0 0 0 0 0 0 0 0 0 0 0 0 0 0 0 0 0 0 0 0 0 0 0
48 45 43 48 60 68 60 54 29 27 13 0 0 0 0 0 0 0 0 0 0 0 0 0 0 0 0 0 0 0 0 0 0 0 0 0 0 0 0 0 0 0 0 0 0 0 0
37 28 27 27 46 37 23 31 43 45 35 29 3 8 0 0 1 0 0 0 0 0 0 0 0 0 0 0 0 0 0 0 0 0 0 0 0 0 0 0 0 0 0 0 0 0 0
44 45 39 46 39 20 37 29 20 34 36 34 16 24 0 0 0 0 0 0 0 10 0 0 0 0 0 0 0 0 0 0 0 0 0 0 0 0 0 0 0 0 0 0 0 0 0
6 18 50 28 13 25 26 31 33 33 24 20 22 31 8 14 0 1 5 0 5 0 0 0 0 0 0 0 0 0 0 0 0 0 0 0 0 0 0 0 0 0 0 0 0 3 1
0 8 1 39 24 10 23 29 23 19 15 20 21 28 14 14 14 0 3 6 0 0 0 0 0 0 0 0 0 0 0 0 0 0 0 0 0 0 0 0 0 0 0 26 2 6 1
0 9 8 3 40 32 30 31 33 14 11 7 13 44 55 32 0 5 19 8 0 0 0 0 0 0 0 0 0 0 0 0 0 0 0 0 0 0 0 0 0 0 0 0 0 0 7
4 4 10 7 37 48 37 28 21 31 11 8 19 45 26 82 51 24 37 0 0 0 0 0 0 0 0 0 0 0 0 0 0 0 0 0 0 0 0 0 0 0 0 0 0 41 23
17 13 16 2 3 48 44 42 10 20 31 18 79 40 64 77 75 45 25 0 0 0 0 0 0 0 0 0 0 0 0 0 0 0 0 0 0 0 0 0 0 0 0 9 12 24 67
23 15 21 32 0 7 68 29 17 9 25 67 52 50 63 107 58 21 20 0 0 0 0 0 0 0 0 0 0 0 0 0 0 0 0 0 0 0 0 0 0 0 0 0 34 13 34
30 28 23 36 21 0 66 34 27 28 36 57 59 20 64 116 32 18 0 0 0 0 0 0 0 0 0 0 0 0 0 0 0 0 0 0 0 0 0 0 0 0 0 1 26 55 19
22 36 35 38 31 1 3 5 13 45 70 53 74 11 69 73 6 1 3 0 0 0 0 0 0 0 0 0 0 0 0 0 0 0 0 0 0 0 0 0 0 0 0 0 7 59 61
50 52 45 51 59 35 0 29 14 36 71 55 63 42 6 26 41 9 15 4 4 10 0 0 0 0 0 0 0 0 0 0 0 0 0 0 0 0 0 0 0 0 0 0 0 0 19
81 71 65 60 45 57 1 56 40 44 73 36 58 49 4 0 0 1 11 0 17 19 2 0 0 0 0 0 0 0 3 9 3 10 22 11 6 11 0 8 6 2 0 12 5 0 3
88 85 79 80 56 71 6 93 46 59 73 83 67 7 38 0 36 11 5 0 0 13 20 0 1 0 0 1 13 13 0 0 0 0 3 9 31 58 2 12 32 2 37 9 17 27 98
90 65 82 76 28 52 36 4 49 66 52 69 94 55 62 20 9 3 0 0 8 16 14 3 0 0 2 17 0 0 0 0 0 1 2 9 23 45 40 45 21 0 0 5 32 115 172
131 95 137 63 24 60 62 1 42 43 57 73 121 100 66 81 1 1 37 41 50 15 10 1 9 0 7 8 5 1 0 0 0 0 2 23 41 43 50 54 0 0 0 70 47 114 32
226 185 111 36 5 22 66 18 51 38 43 106 154 218 234 95 63 3 15 18 31 46 21 4 0 0 6 21 28 13 12 10 18 15 1 13 41 54 44 27 11 0 43 43 126 178 145
250 230 169 16 9 7 71 71 72 44 40 118 238 213 167 142 78 48 42 50 16 41 19 30 28 19 58 46 25 21 19 8 26 35 21 34 30 28 45 38 6 0 17 92 80 160 64
226 155 22 0 14 43 70 74 73 54 43 99 197 160 110 116 53 31 43 35 33 38 37 29 102 55 17 69 47 17 23 35 37 44 31 38 15 76 46 43 22 0 23 25 248 59 0
182 71 13 6 38 55 58 70 47 43 45 78 131 138 96 107 36 4 0 0 2 11 89 57 65 2 6 23 18 50 47 86 44 61 42 85 45 134 45 147 71 52 15 35 2 0 0
CIN
0 0 0 0 0 0 0 0 0 0 0 0 0 0 0 0 0 0 0 0 0 0 0 0 0 0 0 0 0 0 0 0 0 0 0 0 0 0 0 0 0 0 0 0 0 0 0
-78 -16 0 -38 0 0 0 0 0 0 0 0 0 0 0 0 0 0 0 0 0 0 0 0 0 0 0 0 0 0 0 0 0 0 0 0 0 0 0 0 0 0 0 0 0 0 0
-48 0 -6 -71 -7 -95 -48 0 0 0 0 0 0 0 0 0 0 0 0 0 0 0 0 0 0 0 0 0 0 0 0 0 0 0 0 0 0 0 0 0 0 0 0 0 0 0 0
0 0 0 0 0 0 0 0 0 0 0 0 0 0 0 0 0 0 0 0 0 0 0 0 0 0 0 0 0 0 0 0 0 0 0 0 0 0 0 0 0 0 0 0 0 0 0
0 0 0 0 0 0 0 0 0 0 0 0 0 0 0 0 0 0 0 0 0 0 0 0 0 0 0 0 0 0 0 0 0 0 0 0 0 0 0 0 0 0 0 0 0 0 0
0 0 0 0 0 0 0 0 0 0 0 0 0 0 0 0 0 0 0 0 0 0 0 0 0 0 0 0 0 0 0 0 0 0 0 0 0 0 0 0 0 0 0 0 0 0 0
0 -2 0 0 0 0 0 0 0 0 0 0 0 0 0 0 0 0 0 0 0 0 0 0 0 0 0 0 0 0 0 0 0 0 0 0 0 0 0 0 0 0 0 0 0 0 0
-1 0 -4 -4 0 0 0 0 0 0 0 0 0 0 0 0 0 0 0 0 0 0 0 0 0 0 0 0 0 0 0 0 0 0 0 0 0 0 0 0 0 0 0 0 0 0 0
-4 -4 -2 -2 -2 0 0 0 -1 -2 0 0 0 0 0 0 0 0 0 0 0 0 0 0 0 0 0 0 0 0 0 0 0 0 0 0 0 0 0 0 0 0 0 0 0 0 0
-4 -9 -4 -1 -1 -2 -2 -1 -2 -5 -5 -1 0 0 0 0 0 0 0 0 0 0 0 0 0 0 0 0 0 0 0 0 0 0 0 0 0 0 0 0 0 0 0 0 0 0 0
-5 -6 -9 -8 -5 -8 -6 -3 -3 -3 -4 -4 -12 -8 0 0 0 0 0 0 0 0 0 0 0 0 0 0 0 0 0 0 0 0 0 0 0 0 0 0 0 0 0 0 0 0 0
-1 -4 -8 -9 -11 -16 -14 -7 -8 -5 -5 -5 -13 -8 0 0 0 0 0 0 -12 -14 0 0 0 0 0 0 0 0 0 0 0 0 0 0 0 0 0 0 0 0 0 0 0 0 0
0 -2 -2 -9 -15 -15 -14 -12 -11 -10 -9 -11 -9 -10 -5 -2 0 -2 -68 -72 -22 0 0 0 0 0 0 0 0 0 0 0 0 0 0 0 0 0 0 0 0 0 0 0 0 0 -1
0 0 -2 -1 -10 -19 -17 -16 -17 -15 -17 -15 -14 -14 -6 0 -1 0 -8 -52 0 0 0 0 0 0 0 0 0 0 0 0 0 0 0 0 0 0 0 0 0 0 -1 0 0 0 0
0 0 0 0 -5 -10 -19 -19 -17 -20 -22 -29 -23 0 0 0 0 -30 -21 0 0 0 0 0 0 0 0 0 0 0 0 0 0 0 0 0 0 0 0 0 0 0 0 0 0 0 -2
0 0 0 0 0 -1 -10 -23 -21 -19 -27 -31 0 0 0 0 0 0 0 0 0 0 0 0 0 0 0 0 0 0 0 0 0 0 0 0 0 0 0 0 0 0 0 0 0 0 0
0 0 0 0 0 0 -1 -10 -25 -22 -19 -27 0 0 -2 -1 -1 0 0 0 0 0 0 0 0 0 0 0 0 0 0 0 0 0 0 0 0 0 0 0 0 0 0 0 0 0 0
0 0 0 0 0 -5 -1 -2 -18 -30 -24 -8 0 0 0 -21 0 0 0 0 0 0 0 0 0 0 0 0 0 0 0 0 0 0 0 0 0 0 0 0 0 0 0 0 -2 0 -4
0 0 0 0 0 0 0 0 -3 -13 -15 0 0 -8 0 -14 0 0 0 0 0 0 0 0 0 0 0 0 0 0 0 0 0 0 0 0 0 0 0 0 0 -1 0 0 0 -1 -1
0 0 0 0 0 -5 -1 -33 -4 0 -7 -10 -1 0 0 0 0 0 0 0 0 0 0 0 0 0 0 0 0 0 0 0 0 0 0 0 0 0 0 0 0 0 0 0 -1 -6 -6
0 0 0 0 0 -1 -13 -2 -1 0 -4 -28 -7 0 0 0 -5 0 -1 -1 -1 -1 0 0 0 0 0 0 0 0 0 0 0 0 0 0 0 0 0 0 0 0 0 0 0 0 -2
0 0 0 0 0 -1 -6 -6 0 0 -2 -11 0 0 0 0 0 0 -23 0 -2 -2 -1 0 0 0 0 0 0 0 0 0 -1 -3 -1 0 0 0 0 0 -1 0 0 -1 0 0 -2
0 0 0 0 0 0 -6 0 0 0 -1 0 0 -8 0 0 -1 -6 -9 0 0 -1 -1 -3 -34 0 0 0 -10 -11 0 0 0 0 -1 -1 0 0 0 0 0 -1 -4 -5 -6 -8 -2
0 0 0 0 -1 0 -11 -26 0 0 0 -1 0 0 0 0 -1 0 0 -15 0 -2 -17 -29 0 0 -1 -12 -9 0 0 0 0 0 0 0 0 0 0 0 0 0 0 -2 -16 -2 -18
0 0 0 0 0 0 0 -32 0 0 0 -5 0 0 0 0 -5 0 0 0 -1 -27 -41 -1 -21 0 -1 -12 -1 0 0 0 0 0 0 0 0 0 0 0 0 0 0 -1 -31 -38 -89
0 0 0 -1 0 -1 0 -6 0 0 0 -3 -1 0 -1 0 0 -3 -3 -7 0 -5 -8 0 0 -6 -2 -11 0 0 0 0 0 0 0 0 0 0 0 0 0 0 -16 -61 -8 -1 -6
0 0 0 -4 0 0 0 0 0 0 0 -1 0 -7 -3 -1 -1 -1 -1 0 -20 -7 0 0 -2 -3 -1 0 0 0 0 0 0 0 -2 0 0 0 0 0 0 0 -23 -3 -1 -11 -40
0 0 0 0 0 0 0 0 0 0 0 -3 -1 -1 0 -4 -6 -17 -9 0 0 0 0 -1 -3 -5 -3 0 0 0 0 0 0 0 -3 -11 -1 -1 0 0 0 0 -7 -47 -6 -20 0
0 0 0 0 0 0 0 0 0 0 0 -10 0 0 -1 -3 -1 -12 0 0 -6 -17 -13 -9 -1 -1 0 -1 0 0 0 -1 -1 0 -2 0 -5 0 -1 -1 -65 -43 -74 -8 -4 0 0
Wind_Speed
17 17 15 14 13 13 13 13 12 11 11 11 11 10 8 9 9 7 7 7 8 10 12 15 17 20 13 12 13 8 8 10 9 11 11 11 13 8 9 13 9 13 12 4 4 2 5
18 17 15 15 14 13 14 13 13 12 11 11 10 8 9 9 10 8 7 8 9 8 10 13 15 20 13 14 5 1 5 4 7 9 11 8 9 11 10 12 12 10 11 14 9 9 6
15 20 18 17 12 9 7 8 10 12 11 11 9 9 9 9 9 10 9 9 9 9 10 12 13 10 16 20 9 9 7 8 4 6 8 6 10 10 15 13 6 9 14 15 16 15 13
10 11 6 8 11 9 7 4 6 4 3 4 5 8 9 9 9 9 9 11 11 11 11 12 11 8 9 13 7 12 11 12 7 7 8 6 9 12 12 12 14 16 16 15 14 17 13
9 8 8 3 7 9 2 3 3 3 3 1 2 2 5 7 8 8 8 11 13 15 12 12 10 11 12 3 10 5 4 9 8 6 5 6 9 12 12 10 12 14 14 17 15 8 10
11 11 10 10 8 8 9 9 8 6 8 7 6 5 5 4 7 8 9 11 11 11 12 12 10 8 9 11 2 5 6 8 7 7 7 10 7 11 11 11 13 17 13 11 13 8 7
10 11 9 10 11 10 10 10 8 8 9 8 7 7 6 4 6 6 8 9 8 8 9 10 4 8 2 4 3 7 5 7 10 10 12 13 9 12 16 17 17 9 12 14 15 7 6
14 13 13 13 13 11 11 12 10 8 7 7 3 4 5 3 5 5 5 8 5 6 10 16 20 19 15 2 8 12 5 7 11 13 14 14 15 16 17 9 9 10 15 17 18 18 18
12 11 12 13 13 12 12 11 10 11 10 7 5 4 4 4 1 3 12 14 6 7 8 14 19 18 15 14 18 17 13 12 14 16 14 17 15 4 6 11 12 14 15 16 20 20 23
11 11 11 11 12 12 12 10 9 10 9 9 6 5 4 4 1 10 12 15 3 3 7 9 7 5 8 5 8 15 18 16 15 17 16 15 17 17 14 15 14 18 17 20 19 16 16
10 11 13 13 13 11 10 9 7 9 10 10 7 5 8 13 11 7 5 4 3 3 7 10 9 5 6 12 3 6 5 13 16 17 8 9 9 8 14 14 14 18 9 15 11 15 17
8 12 12 13 13 13 13 12 10 8 8 9 8 6 5 3 6 6 3 2 2 4 10 7 8 9 10 12 7 5 5 6 7 13 16 16 14 15 11 9 12 13 9 14 15 12 15
6 8 14 14 14 14 14 14 12 11 10 9 8 8 6 6 1 5 3 3 4 9 0 8 7 11 14 9 10 9 9 8 7 6 11 16 19 18 15 14 11 12 10 7 6 9 12
5 7 9 15 15 14 14 14 14 14 12 10 6 8 7 7 3 1 2 3 9 11 21 2 5 10 12 12 11 10 6 10 14 12 10 10 10 12 11 13 11 13 12 9 14 12 13
9 8 7 8 14 15 16 15 15 15 12 11 7 6 6 6 2 3 4 6 9 11 12 7 7 10 12 12 4 7 9 11 11 9 8 6 7 8 7 3 6 7 13 14 16 16 14
12 11 9 7 10 15 17 19 18 16 15 13 7 6 7 9 5 4 6 12 9 3 6 4 13 12 13 11 10 6 6 2 8 8 5 6 11 13 10 8 12 13 12 12 10 14 18
12 11 11 8 8 13 18 19 20 18 14 14 6 4 8 10 6 5 9 9 14 1 4 4 9 5 8 10 12 10 6 4 3 3 4 7 9 11 14 13 15 12 14 15 15 13 14
13 13 11 11 8 12 20 20 20 20 18 13 5 5 8 8 7 7 12 17 14 5 5 5 5 6 9 8 6 9 12 8 3 3 8 9 5 10 15 14 16 15 17 17 12 16 13
15 14 14 14 13 13 20 24 21 21 23 7 5 3 4 7 8 10 13 20 15 9 9 5 5 4 3 7 5 9 12 10 1 5 2 6 4 8 11 12 17 14 18 19 14 13 17
17 16 15 15 15 16 15 28 25 22 23 7 5 4 4 5 12 15 15 16 18 7 10 13 7 11 7 12 11 6 6 4 3 3 9 2 9 12 12 14 17 21 22 22 19 8 14
19 18 16 15 14 15 14 26 27 26 26 4 4 6 8 9 12 16 16 15 18 13 10 11 9 15 12 10 12 14 14 13 8 10 6 5 15 15 20 22 21 23 24 23 22 21 20
20 20 17 17 15 15 15 24 26 27 27 6 5 5 8 6 17 17 14 15 17 15 12 14 17 12 13 14 13 11 6 8 7 6 8 11 17 16 25 20 21 25 25 25 24 24 23
21 20 19 18 15 17 18 25 28 28 27 7 9 10 8 5 13 11 15 17 16 14 15 15 10 13 9 7 6 9 7 6 8 9 11 14 13 14 24 16 18 17 10 18 22 21 19
23 22 20 19 15 18 20 13 28 30 32 10 8 6 6 6 9 13 13 20 21 12 15 7 10 10 9 10 6 8 10 13 14 16 16 18 17 13 16 14 18 9 16 18 19 17 13
22 21 20 18 19 20 23 17 31 32 31 16 7 8 7 7 12 14 16 11 11 10 11 13 10 9 3 7 3 6 8 14 22 23 22 18 13 8 10 11 18 23 20 16 8 14 18
22 21 22 20 21 20 23 22 31 32 31 17 8 7 5 8 12 21 18 15 10 13 10 12 12 7 3 3 2 6 7 10 7 5 20 18 14 11 9 11 15 12 4 11 17 10 8
21 21 23 20 22 24 27 25 31 30 31 15 5 6 3 4 3 6 10 14 16 12 9 11 15 13 11 4 5 8 13 16 16 17 5 11 11 15 12 12 12 14 20 5 7 3 7
19 20 21 20 23 26 29 28 34 32 32 19 5 6 5 2 2 4 4 4 4 9 8 3 3 3 2 5 4 7 8 10 11 15 8 10 8 10 13 14 16 14 12 6 2 4 5
21 23 20 26 28 22 27 32 31 32 31 26 4 5 2 3 2 6 6 10 10 9 4 2 2 4 4 4 8 5 7 4 7 7 4 7 11 8 7 5 10 14 3 7 4 2 2
Wind_Direction
222 220 221 221 220 220 224 225 225 225 227 228 227 238 246 261 270 277 290 298 311 322 327 330 329 326 331 318 286 134 204 220 263 278 296 313 298 329 291 328 310 267 267 259 278 259 270
221 219 214 217 221 223 227 226 225 224 226 232 235 236 244 249 269 271 279 292 303 313 318 323 327 325 307 286 25 350 285 283 262 310 311 318 330 323 287 280 284 332 314 298 277 222 210
246 222 220 212 207 217 218 227 229 235 227 223 228 237 248 254 256 266 274 284 290 297 301 308 316 318 295 260 293 295 277 279 299 288 302 326 317 307 322 292 358 288 277 268 249 243 229
53 52 48 131 125 118 129 98 320 159 164 184 212 248 248 251 253 266 277 286 288 283 283 287 298 301 264 310 319 296 264 259 237 264 271 296 298 288 274 286 288 264 261 265 256 230 202
129 110 107 8 96 122 158 224 171 300 287 273 210 220 271 259 257 259 270 279 277 270 265 273 273 207 275 165 244 250 282 258 239 229 251 293 281 265 274 260 274 241 250 266 255 218 177
171 176 169 187 186 192 191 227 198 226 226 211 204 226 241 270 284 275 271 263 270 269 252 253 247 282 249 252 72 288 269 273 247 233 239 233 240 245 238 243 257 270 297 263 261 187 209
197 198 200 208 210 218 211 223 228 216 240 237 231 191 233 239 252 270 285 260 239 206 209 235 203 242 279 203 258 230 215 231 243 251 246 233 238 247 253 263 255 308 297 291 300 303 223
211 206 203 210 220 217 223 212 220 227 221 229 212 263 259 245 277 270 266 254 322 350 294 246 250 259 271 259 272 246 170 245 228 243 248 241 242 254 286 304 303 284 283 285 284 276 273
226 220 220 216 214 217 217 227 207 205 197 203 214 223 266 271 187 240 242 249 310 329 263 274 243 235 236 228 247 249 216 227 259 263 244 259 263 161 297 296 270 263 267 277 282 290 289
233 225 221 231 223 226 224 220 213 204 205 195 202 230 203 181 237 222 227 249 52 326 274 238 195 239 213 233 252 239 248 256 235 250 266 272 276 265 290 283 265 273 286 293 305 308 290
236 231 225 225 227 213 207 218 229 222 208 203 202 211 209 214 323 213 28 94 91 248 280 100 122 80 148 198 79 148 259 229 239 238 215 245 283 265 279 273 279 277 329 315 320 301 303
274 236 224 222 213 197 197 200 199 204 185 187 189 207 206 219 240 332 39 87 208 232 245 178 135 186 180 211 230 111 171 249 233 248 264 262 274 284 255 267 292 305 311 289 275 262 258
325 304 246 222 209 204 198 190 185 180 179 194 204 197 207 280 308 28 340 205 188 231 122 183 189 185 199 179 190 198 171 189 199 194 229 239 240 243 243 253 270 254 253 273 266 253 254
298 313 304 238 219 208 198 189 179 171 171 190 202 189 229 253 322 7 271 195 229 220 234 30 179 188 208 161 214 207 221 228 208 249 282 281 277 250 187 210 247 272 246 243 276 285 297
282 286 305 285 238 215 195 185 179 174 173 180 164 208 239 222 210 224 197 212 204 233 290 171 196 196 200 179 312 206 250 264 269 219 220 303 269 141 123 222 249 257 244 265 273 273 276
275 272 280 302 257 237 202 183 177 179 176 165 181 201 219 171 180 191 218 237 233 315 329 282 207 201 202 197 191 199 253 274 250 270 286 279 277 279 291 207 228 244 275 287 276 276 267
263 278 273 278 310 242 220 191 176 175 179 175 190 199 144 159 162 198 219 232 253 84 309 290 247 212 249 239 213 214 226 279 255 280 235 293 281 275 278 251 258 267 255 248 243 247 264
259 260 270 271 282 307 214 187 181 171 173 174 200 210 161 158 178 203 225 222 262 251 221 273 292 278 221 246 250 245 267 254 83 342 288 269 292 277 267 279 289 289 279 276 268 281 281
259 256 259 259 264 284 223 187 183 178 176 160 192 126 163 196 204 209 228 225 243 236 226 240 253 251 283 268 263 254 264 279 308 191 320 353 273 270 271 253 236 239 257 258 259 269 261
259 256 251 256 259 278 273 177 176 190 184 191 138 149 166 206 246 212 205 226 217 221 265 254 258 255 238 247 247 256 256 263 185 248 103 355 262 264 269 284 309 297 291 294 296 277 287
251 253 248 248 259 258 272 185 178 184 194 159 206 194 183 191 213 228 226 214 225 200 221 268 234 242 225 239 235 244 249 255 209 192 222 235 258 267 272 281 284 278 276 275 275 282 280
246 244 248 244 240 248 248 194 182 182 200 207 173 173 185 224 193 216 237 235 230 218 184 224 238 234 230 244 249 261 268 256 268 298 225 228 261 265 270 269 273 275 272 265 260 259 263
247 243 244 241 232 244 234 213 181 183 197 218 216 228 216 203 171 190 220 227 251 229 231 220 233 237 245 246 347 353 337 299 279 282 272 272 269 255 266 282 287 277 276 281 283 282 284
240 239 240 239 238 247 224 229 180 185 202 231 225 239 206 214 198 212 226 231 228 230 234 237 236 255 222 69 347 291 272 265 258 252 248 254 258 271 279 280 270 279 269 279 256 265 262
235 238 239 234 238 249 224 208 189 187 204 235 215 229 236 205 201 208 226 244 215 219 239 241 223 216 146 52 356 301 256 247 244 239 237 230 241 262 253 258 279 284 279 288 201 274 241
231 231 232 233 238 248 224 207 193 187 201 223 253 233 268 245 222 194 187 212 216 223 226 239 258 290 269 87 146 244 251 273 254 213 214 219 206 232 255 261 262 269 5 3 322 270 22
239 234 227 240 240 249 221 210 189 186 199 206 246 241 256 262 192 274 189 192 202 206 216 220 209 207 215 143 209 251 253 252 255 256 203 195 197 221 235 248 271 282 295 152 257 350 7
243 235 228 263 244 238 218 211 186 184 198 198 209 208 210 252 353 328 320 238 178 221 220 170 124 79 141 178 227 237 261 255 247 251 234 189 215 212 230 250 265 251 257 254 58 96 15
240 220 247 253 227 230 218 201 177 176 196 194 184 185 183 265 25 7 328 304 300 28 4 4 72 114 142 197 229 266 250 291 276 275 281 201 214 224 204 223 14 327 77 285 3 43 52